Wind_Speed
31 32 32 33 33 34 35 35 36 36 37 38 38 38 38 38 39 40 40 40 40 41 41 41 41 41 42 43 43 43 43 44 43 43 43 43 44 44 45 45 45 45 46 47
32 32 33 34 35 36 36 37 38 39 39 40 41 40 39 39 40 41 41 41 41 42 42 42 42 42 43 43 44 45 45 45 45 46 46 45 45 45 46 47 47 47 47 47
34 33 34 35 35 37 38 39 39 40 40 41 42 42 40 40 41 41 41 42 42 42 42 43 44 44 44 45 45 46 46 47 47 47 48 48 47 47 47 47 48 48 48 48
35 34 35 35 36 37 38 39 40 41 41 41 41 43 40 40 41 41 41 41 42 43 43 43 44 45 45 46 46 47 47 48 48 49 49 49 49 49 49 49 49 49 49 49
35 34 35 36 36 38 39 40 41 41 42 42 41 43 41 40 40 39 40 41 42 42 43 43 44 45 45 47 47 47 48 49 49 50 50 50 50 50 50 50 50 50 50 50
35 35 36 36 37 38 39 40 41 41 42 42 41 42 42 40 39 39 40 41 41 42 43 43 44 44 45 47 48 48 48 49 50 51 50 50 51 51 51 51 51 51 51 51
36 36 36 37 38 38 39 39 40 41 41 41 40 41 41 40 40 40 41 40 41 42 43 44 44 45 45 46 47 48 49 50 50 50 50 50 51 51 51 51 51 52 52 52
37 37 37 37 37 38 38 38 38 40 41 41 40 40 39 39 39 40 40 40 41 41 42 44 44 45 45 45 46 48 49 49 50 50 50 50 51 51 51 51 51 52 52 53
37 38 38 38 38 37 37 37 37 39 40 41 41 41 40 40 39 39 38 39 40 41 41 42 43 44 45 46 46 47 48 49 50 51 50 50 51 51 51 52 52 52 53 53
38 39 39 39 39 38 38 38 38 37 39 40 41 40 40 39 38 39 39 39 39 41 41 41 42 44 45 45 45 46 48 49 49 50 50 50 51 52 52 52 52 52 53 53
39 40 40 40 39 39 38 38 38 38 38 38 40 40 39 38 38 38 39 39 39 39 40 41 42 43 44 44 45 46 46 47 48 49 49 49 49 50 51 51 51 51 52 52
39 40 40 40 40 39 38 37 37 37 37 38 39 40 37 37 37 37 37 38 39 39 40 41 42 43 43 44 44 45 46 47 48 49 49 48 48 49 50 49 50 50 50 51
40 40 41 40 39 38 37 36 36 37 37 38 38 38 37 37 37 37 38 38 39 39 40 40 41 42 43 43 44 45 46 46 47 48 48 49 49 49 49 48 48 48 48 49
40 39 39 38 37 37 36 35 36 36 37 38 38 37 36 36 37 38 39 39 40 40 40 41 41 42 42 42 43 43 44 45 47 48 48 49 49 48 48 48 47 47 47 48
38 38 37 36 35 36 36 35 35 36 37 38 37 37 36 36 38 39 39 39 39 40 40 40 41 41 42 42 43 43 44 44 45 47 47 48 48 48 48 47 47 47 47 48
36 36 36 35 35 36 36 35 36 36 36 36 36 36 35 37 37 38 39 39 39 39 39 39 39 40 40 41 42 43 43 44 45 45 46 46 46 46 47 47 47 47 48 48
35 34 34 34 34 35 35 35 35 35 35 35 35 35 35 36 37 37 38 38 38 38 37 38 39 39 40 41 41 42 43 43 44 44 44 44 44 45 45 46 45 45 46 47
33 33 33 34 33 34 33 33 33 34 33 34 34 34 35 35 36 36 37 38 38 38 38 38 38 39 39 40 40 41 41 42 42 42 42 42 42 43 44 44 45 45 46 46
31 32 33 33 34 34 32 32 33 33 32 33 34 34 35 35 35 35 36 37 37 38 38 38 37 37 37 38 38 38 39 39 39 40 40 40 40 40 41 42 43 44 44 45
30 30 31 32 33 33 31 31 32 33 33 33 33 34 34 34 35 34 35 35 36 36 36 37 37 37 37 37 37 37 37 37 37 37 38 38 38 39 39 40 41 42 43 43
29 29 30 30 31 31 30 31 31 32 33 32 32 32 33 33 34 34 34 35 36 36 36 36 36 36 37 36 36 36 36 35 35 35 36 37 37 38 38 39 39 40 41 41
29 29 29 29 29 29 30 31 31 32 32 32 32 32 33 33 34 34 34 35 35 36 36 35 35 35 35 36 35 35 35 35 35 35 35 35 35 36 37 37 38 39 39 40
29 29 29 28 28 28 29 30 30 31 32 32 32 33 33 34 34 34 34 34 35 35 35 35 35 35 35 35 34 34 35 35 34 34 34 33 34 34 35 35 37 38 39 39
27 27 27 27 28 28 29 30 30 31 32 32 32 33 34 34 34 34 34 34 34 34 34 35 35 35 34 34 34 34 34 33 33 33 32 32 32 33 34 35 36 37 38 38
25 25 25 26 27 27 28 30 31 32 31 32 33 33 34 34 34 34 34 34 33 33 34 33 33 33 33 33 33 33 33 32 31 31 31 31 32 32 33 34 35 35 35 36
24 25 26 26 26 28 29 30 31 31 31 31 32 32 32 33 33 33 33 33 33 32 32 32 31 31 31 32 32 32 31 30 30 30 30 30 30 31 32 32 33 33 34 34
Wind_Direction
287 285 285 285 283 283 283 283 282 281 279 278 276 275 274 272 270 267 265 264 264 263 262 262 261 261 262 262 263 263 263 263 263 264 264 264 264 264 264 264 265 265 264 261
287 286 286 284 284 283 283 283 283 282 281 279 277 275 274 272 270 268 266 265 264 264 263 262 262 262 263 263 263 263 263 263 263 264 264 264 264 264 265 265 264 264 264 262
288 288 287 286 285 284 284 284 284 284 282 281 279 277 275 273 271 269 267 266 265 265 264 263 262 263 263 263 264 263 263 262 263 263 264 265 265 265 265 265 265 264 263 262
288 287 286 286 286 285 285 285 284 284 283 283 282 280 276 274 272 270 268 267 267 267 266 265 264 264 264 263 263 264 263 263 263 263 264 265 265 265 265 265 265 264 263 261
289 288 287 287 287 286 287 286 285 284 283 282 282 281 279 277 274 271 270 269 269 268 268 267 266 265 265 264 265 264 264 264 264 264 265 265 265 265 265 264 264 263 263 262
290 288 288 289 289 289 288 287 285 284 283 282 282 281 281 279 275 273 272 271 271 270 269 268 267 266 265 265 265 264 265 265 265 265 265 265 265 265 264 264 263 262 262 261
290 289 289 289 290 290 290 289 288 286 285 284 283 282 282 281 278 275 274 273 273 272 270 268 267 267 267 267 266 265 265 266 266 265 265 265 264 264 264 263 262 262 261 260
292 291 291 291 291 292 291 290 289 288 287 286 285 283 283 282 279 278 277 276 274 272 271 270 269 268 268 268 267 265 265 265 265 265 265 265 265 264 264 262 262 262 261 260
292 291 291 292 292 292 291 289 289 288 287 286 285 284 283 282 280 280 279 278 276 274 273 271 270 268 268 268 267 266 265 265 265 264 264 265 265 265 265 263 263 263 262 261
292 291 291 292 291 291 290 290 289 288 288 288 287 287 285 284 283 281 281 280 279 277 274 272 270 269 268 268 267 266 266 265 265 265 265 265 266 265 265 265 264 264 263 262
294 292 292 292 292 291 290 289 288 288 287 288 288 288 286 285 283 282 281 280 279 277 274 273 271 270 269 268 268 268 267 266 266 265 265 265 266 266 266 266 266 265 264 262
294 293 292 292 292 291 289 288 287 287 287 287 288 288 288 286 284 282 281 281 280 277 276 275 274 272 271 270 269 268 268 267 267 266 266 266 267 267 267 266 266 265 264 262
294 293 293 293 292 291 289 287 286 285 285 286 287 288 288 286 283 282 281 281 280 279 278 277 276 275 274 273 271 270 269 268 267 267 267 268 268 268 267 266 265 265 264 263
293 292 292 293 293 291 289 286 285 284 284 286 285 286 286 285 283 282 280 280 280 280 279 279 277 276 275 275 274 272 270 269 269 269 269 269 268 268 268 266 266 265 264 263
292 291 291 290 290 289 288 286 285 285 287 287 287 286 286 285 284 283 282 281 282 281 280 280 279 278 277 275 275 274 272 272 271 271 270 269 269 269 268 267 266 265 264 264
291 290 291 289 289 288 287 285 285 287 288 289 287 287 287 285 284 284 284 283 282 283 282 281 280 279 278 277 276 275 274 274 273 273 272 271 270 270 269 268 266 265 265 264
293 291 291 291 292 291 289 290 289 289 290 289 288 288 287 286 286 286 285 284 283 282 283 282 282 281 280 279 278 277 276 275 275 274 273 272 271 270 269 268 267 266 265 264
295 292 291 293 293 292 294 293 292 292 291 291 290 289 289 289 289 288 287 286 285 283 283 284 284 284 283 281 280 279 278 277 276 276 275 274 273 271 269 267 267 267 266 265
296 293 293 294 294 294 295 295 296 295 293 292 292 291 290 290 291 290 289 288 287 286 285 285 285 285 284 283 282 281 280 279 278 277 275 274 273 272 270 268 268 268 268 266
297 294 293 294 294 296 298 297 297 297 297 296 295 294 293 293 292 291 290 290 289 288 287 286 286 286 286 285 284 283 282 281 280 278 276 274 273 272 271 270 269 268 268 268
298 295 293 293 294 296 298 298 298 299 300 299 297 297 296 296 296 295 293 292 291 290 289 289 289 289 287 286 284 284 283 283 281 280 278 276 274 273 272 271 270 269 269 269
301 299 296 296 296 297 296 297 299 300 300 299 298 298 297 297 297 298 298 296 294 293 291 290 290 291 290 287 286 285 285 284 282 280 279 277 276 275 274 273 272 272 272 271
300 301 299 297 297 297 298 298 299 300 298 298 299 299 299 299 299 300 300 298 297 296 294 292 291 290 290 289 288 287 285 284 282 281 279 278 277 277 276 275 275 274 273 273
300 301 299 297 295 296 297 297 298 301 301 301 300 300 300 300 300 300 299 299 298 297 296 295 293 291 289 289 289 288 287 285 283 281 281 280 279 279 278 277 276 276 275 274
302 301 300 300 299 296 296 297 299 301 302 302 302 302 302 302 302 303 302 301 300 299 299 297 294 292 290 289 289 288 287 285 283 282 281 281 280 280 279 278 277 277 276 276
300 300 301 303 305 305 303 300 300 301 302 302 303 303 303 303 304 304 304 303 301 300 300 299 297 295 292 291 290 289 287 284 283 282 282 282 282 283 282 281 279 278 277 277
Height
5727 5726 5723 5721 5718 5716 5714 5711 5709 5707 5704 5702 5700 5700 5699 5697 5696 5696 5696 5696 5696 5697 5697 5697 5697 5698 5698 5699 5699 5700 5700 5700 5700 5700 5700 5700 5700 5700 5700 5700 5700 5700 5700 5701
5719 5716 5714 5711 5709 5706 5704 5701 5699 5696 5693 5691 5689 5688 5688 5686 5685 5684 5684 5684 5685 5685 5685 5685 5686 5686 5687 5687 5688 5688 5688 5688 5688 5688 5688 5688 5688 5688 5688 5688 5688 5687 5687 5688
5709 5708 5704 5701 5699 5696 5694 5691 5688 5685 5682 5679 5677 5677 5676 5675 5673 5673 5673 5672 5672 5673 5673 5673 5674 5674 5674 5675 5674 5674 5675 5675 5675 5675 5675 5675 5675 5675 5675 5675 5675 5674 5674 5674
5699 5697 5694 5691 5688 5685 5683 5681 5677 5674 5670 5668 5666 5662 5664 5662 5661 5661 5661 5660 5660 5660 5660 5661 5661 5661 5661 5661 5661 5661 5662 5662 5662 5661 5662 5662 5662 5662 5662 5661 5661 5660 5660 5661
5689 5687 5684 5681 5679 5675 5672 5669 5666 5662 5659 5656 5654 5651 5652 5650 5649 5649 5649 5648 5648 5648 5648 5647 5648 5648 5648 5648 5647 5647 5648 5648 5648 5647 5647 5647 5647 5647 5647 5647 5646 5646 5646 5646
5680 5677 5674 5671 5668 5664 5661 5658 5654 5651 5648 5645 5644 5640 5638 5638 5638 5637 5637 5636 5636 5635 5635 5634 5634 5634 5634 5634 5633 5634 5634 5633 5633 5633 5633 5632 5632 5632 5632 5632 5632 5631 5631 5631
5670 5667 5664 5661 5657 5654 5650 5647 5643 5639 5636 5634 5633 5629 5628 5627 5626 5625 5624 5624 5623 5622 5622 5621 5621 5620 5620 5619 5619 5619 5619 5619 5618 5618 5618 5618 5618 5617 5617 5617 5617 5616 5616 5617
5659 5657 5654 5650 5647 5643 5640 5637 5633 5629 5626 5623 5621 5618 5618 5616 5614 5613 5612 5611 5610 5609 5608 5608 5607 5606 5605 5605 5605 5605 5604 5604 5604 5604 5603 5603 5603 5602 5602 5602 5602 5602 5602 5602
5648 5646 5643 5640 5636 5633 5629 5626 5623 5618 5614 5611 5609 5608 5607 5605 5603 5602 5600 5599 5598 5596 5595 5594 5593 5593 5592 5591 5591 5590 5590 5589 5589 5589 5589 5589 5588 5588 5588 5588 5587 5587 5587 5587
5638 5635 5633 5629 5626 5622 5619 5615 5612 5608 5603 5600 5598 5597 5596 5594 5592 5590 5589 5587 5586 5584 5582 5581 5580 5579 5578 5577 5577 5576 5575 5575 5574 5574 5574 5574 5574 5573 5573 5573 5572 5572 5572 5572
5627 5625 5622 5618 5615 5612 5608 5605 5601 5597 5593 5590 5586 5588 5585 5583 5580 5579 5577 5575 5573 5571 5569 5568 5566 5565 5564 5563 5563 5562 5561 5561 5560 5559 5559 5560 5559 5559 5558 5558 5557 5556 5556 5556
5617 5613 5610 5608 5604 5600 5597 5594 5591 5588 5584 5580 5576 5578 5575 5572 5569 5567 5565 5563 5560 5558 5556 5555 5553 5552 5550 5549 5549 5548 5547 5547 5546 5545 5545 5545 5545 5544 5544 5543 5542 5541 5541 5541
5606 5602 5599 5596 5595 5590 5586 5583 5580 5577 5573 5570 5566 5568 5564 5561 5557 5555 5553 5550 5548 5546 5544 5542 5540 5538 5537 5535 5535 5534 5533 5533 5532 5532 5531 5531 5530 5530 5529 5528 5528 5527 5527 5527
5594 5591 5589 5586 5582 5578 5575 5573 5570 5566 5563 5559 5558 5556 5554 5549 5546 5544 5541 5539 5536 5534 5532 5530 5528 5526 5524 5523 5521 5520 5519 5519 5518 5517 5517 5516 5516 5515 5514 5514 5513 5513 5513 5513
5583 5580 5577 5574 5571 5567 5564 5562 5559 5556 5553 5549 5548 5545 5543 5539 5535 5532 5530 5527 5525 5523 5520 5518 5516 5514 5512 5510 5508 5507 5506 5505 5504 5503 5503 5502 5500 5500 5499 5499 5499 5498 5498 5498
5572 5569 5566 5563 5560 5557 5554 5552 5549 5545 5543 5539 5536 5535 5532 5527 5524 5521 5518 5516 5514 5511 5509 5506 5504 5501 5499 5497 5495 5494 5492 5491 5490 5489 5488 5487 5486 5485 5484 5484 5484 5484 5483 5483
5562 5559 5555 5553 5550 5546 5544 5543 5539 5536 5533 5529 5526 5524 5520 5517 5514 5511 5508 5505 5502 5500 5497 5494 5492 5489 5487 5485 5482 5481 5479 5477 5476 5475 5474 5472 5471 5470 5469 5469 5469 5469 5469 5469
5552 5549 5545 5542 5540 5536 5537 5532 5529 5526 5523 5519 5516 5513 5510 5506 5503 5500 5496 5493 5490 5488 5485 5483 5480 5477 5475 5472 5470 5468 5466 5464 5462 5461 5459 5458 5457 5456 5455 5454 5454 5454 5454 5454
5544 5540 5536 5533 5529 5527 5527 5523 5519 5516 5513 5510 5506 5503 5499 5495 5493 5490 5486 5482 5479 5476 5474 5471 5468 5466 5463 5460 5458 5455 5453 5451 5449 5448 5446 5444 5443 5442 5441 5441 5440 5440 5440 5440
5535 5532 5529 5524 5520 5518 5518 5514 5509 5507 5504 5501 5496 5492 5489 5485 5482 5481 5476 5472 5468 5465 5462 5459 5457 5454 5451 5448 5446 5443 5441 5439 5437 5435 5433 5431 5430 5429 5428 5427 5426 5426 5426 5425
5527 5523 5520 5516 5512 5510 5509 5505 5501 5499 5496 5491 5486 5483 5479 5475 5472 5469 5465 5461 5458 5454 5451 5448 5445 5443 5440 5437 5434 5432 5430 5428 5425 5423 5421 5419 5418 5416 5415 5414 5413 5412 5412 5412
5518 5514 5511 5508 5505 5504 5499 5496 5493 5490 5485 5481 5477 5473 5470 5466 5462 5458 5455 5451 5448 5444 5440 5437 5434 5431 5428 5426 5424 5421 5419 5416 5414 5411 5410 5408 5406 5404 5403 5402 5401 5400 5399 5398
5510 5507 5503 5501 5499 5495 5490 5487 5483 5480 5476 5472 5468 5465 5460 5457 5453 5449 5445 5441 5437 5434 5430 5427 5424 5421 5418 5415 5412 5410 5408 5405 5403 5400 5398 5396 5394 5393 5391 5390 5388 5387 5386 5385
5502 5499 5495 5492 5490 5486 5482 5479 5475 5471 5467 5463 5459 5455 5451 5447 5443 5439 5435 5431 5427 5423 5420 5416 5413 5410 5407 5404 5401 5399 5396 5394 5392 5389 5387 5385 5384 5382 5380 5378 5377 5375 5374 5373
5495 5491 5487 5484 5482 5479 5476 5471 5467 5463 5459 5454 5450 5446 5441 5437 5434 5429 5425 5421 5417 5413 5409 5406 5402 5399 5396 5393 5391 5388 5386 5383 5381 5379 5377 5375 5373 5371 5369 5367 5365 5363 5362 5361
5488 5484 5480 5478 5474 5470 5467 5463 5459 5454 5450 5446 5442 5438 5433 5428 5424 5420 5415 5411 5407 5403 5399 5396 5392 5389 5386 5383 5380 5378 5375 5373 5371 5369 5367 5365 5363 5360 5358 5356 5354 5352 5351 5349